Orbital elements of FENGYUN 1C DEB
| Launched | 9 May 1999 |
| Flight ended | – |
| Launch site | Taiyuan Space Center, PRC |
| Owner | People's Republic of China |
| NORAD ID | 43358 |
| Date fetched |
Epoch osculation |
Inc. [°] |
Ecc. | RA asc node [hr] |
Arg Peri. [°] |
Mean anom [°] |
Mean motion [rev/day] |
Abs. mag |
| Date fetched |
Epoch osculation |
Inc. [°] |
Ecc. | RA asc node [hr] |
Arg Peri. [°] |
Mean anom [°] |
Mean motion [rev/day] |
Abs. mag |
| 2026 May 05 17:57 | 2026 May 04 18:24:43 | 98.6898 | 0.03648 | 15.3257 | 200.7355 | 157.8648 | 13.40817 | – |
| 2026 May 04 17:57 | 2026 Apr 29 18:25:02 | 98.6892 | 0.03643 | 15.0386 | 213.3303 | 157.8648 | 13.40817 | – |
| 2026 May 03 17:57 | 2026 Apr 29 18:25:02 | 98.6892 | 0.03643 | 15.0386 | 213.3303 | 157.8648 | 13.40817 | – |
| 2026 May 02 17:57 | 2026 Apr 29 18:25:02 | 98.6892 | 0.03643 | 15.0386 | 213.3303 | 157.8648 | 13.40817 | – |
| 2026 May 01 17:56 | 2026 Apr 29 18:25:02 | 98.6892 | 0.03643 | 15.0386 | 213.3303 | 157.8648 | 13.40817 | – |
| 2026 Apr 30 17:56 | 2026 Apr 29 18:25:02 | 98.6892 | 0.03643 | 15.0386 | 213.3303 | 157.8648 | 13.40817 | – |
| 2026 Apr 29 17:57 | 2026 Apr 24 05:53:04 | 98.6886 | 0.03637 | 14.7214 | 227.2688 | 157.8648 | 13.40817 | – |
| 2026 Apr 28 17:56 | 2026 Apr 24 05:53:04 | 98.6886 | 0.03637 | 14.7214 | 227.2688 | 157.8648 | 13.40817 | – |
| 2026 Apr 27 17:58 | 2026 Apr 24 05:53:04 | 98.6886 | 0.03637 | 14.7214 | 227.2688 | 157.8648 | 13.40817 | – |
| 2026 Apr 26 17:58 | 2026 Apr 24 05:53:04 | 98.6886 | 0.03637 | 14.7214 | 227.2688 | 157.8648 | 13.40817 | – |
| 2026 Apr 25 17:58 | 2026 Apr 24 05:53:04 | 98.6886 | 0.03637 | 14.7214 | 227.2688 | 157.8648 | 13.40817 | – |
| 2026 Apr 24 17:59 | 2026 Apr 24 05:53:04 | 98.6886 | 0.03637 | 14.7214 | 227.2688 | 157.8648 | 13.40817 | – |
| 2026 Apr 23 17:57 | 2026 Apr 19 05:53:16 | 98.6880 | 0.03631 | 14.4343 | 239.9046 | 157.8648 | 13.40817 | – |
| 2026 Apr 22 17:57 | 2026 Apr 19 05:53:16 | 98.6880 | 0.03631 | 14.4343 | 239.9046 | 157.8648 | 13.40817 | – |
| 2026 Apr 21 17:57 | 2026 Apr 19 05:53:16 | 98.6880 | 0.03631 | 14.4343 | 239.9046 | 157.8648 | 13.40817 | – |
| 2026 Apr 20 17:57 | 2026 Apr 19 05:53:16 | 98.6880 | 0.03631 | 14.4343 | 239.9046 | 157.8648 | 13.40817 | – |
| 2026 Apr 19 17:58 | 2026 Apr 19 05:53:16 | 98.6880 | 0.03631 | 14.4343 | 239.9046 | 157.8648 | 13.40817 | – |
| 2026 Apr 18 17:56 | 2026 Apr 12 19:51:42 | 98.6872 | 0.03624 | 14.0657 | 256.1492 | 157.8648 | 13.40817 | – |
| 2026 Apr 16 17:57 | 2026 Apr 12 19:51:42 | 98.6872 | 0.03624 | 14.0657 | 256.1492 | 157.8648 | 13.40817 | – |
| 2026 Apr 14 17:57 | 2026 Apr 12 19:51:42 | 98.6872 | 0.03624 | 14.0657 | 256.1492 | 157.8648 | 13.40817 | – |
| 2026 Apr 13 17:57 | 2026 Apr 12 19:51:42 | 98.6872 | 0.03624 | 14.0657 | 256.1492 | 157.8648 | 13.40817 | – |
| 2026 Apr 12 17:57 | 2026 Apr 08 06:36:38 | 98.6872 | 0.03620 | 13.8044 | 267.6856 | 157.8648 | 13.40817 | – |
| 2026 Apr 11 17:57 | 2026 Apr 08 06:36:38 | 98.6872 | 0.03620 | 13.8044 | 267.6856 | 157.8648 | 13.40817 | – |
| 2026 Apr 10 17:58 | 2026 Apr 08 06:36:38 | 98.6872 | 0.03620 | 13.8044 | 267.6856 | 157.8648 | 13.40817 | – |
| 2026 Apr 09 18:01 | 2026 Apr 08 06:36:38 | 98.6872 | 0.03620 | 13.8044 | 267.6856 | 157.8648 | 13.40817 | – |
| 2026 Apr 08 17:57 | 2026 Apr 08 06:36:38 | 98.6872 | 0.03620 | 13.8044 | 267.6856 | 157.8648 | 13.40817 | – |